Regional Weather Roundup
Issued by NWS Spokane, WA

Home | Current Version | Previous Version | Text Only | Print | Product List | Glossary On
Versions: 1 2 3 4 5 6 7 8 9 10 11 12 13 14 15 16 17 18 19 20 21 22 23 24 25 26 27 28 29 30 31 32 33 34 35 36 37 38 39 40 41 42 43 44 45 46 47 48 49 50
000
NZUS01 KOTX 191310
RWROTX
EASTERN WASHINGTON/NORTHERN IDAHO ROUNDUP
NATIONAL WEATHER SERVICE, SPOKANE WA
600 AM PDT SUN APR 19 2015

Note: "fair" indicated few or no clouds below 12,000 feet with no
significant weather and/or obstructions to visibility.

...NORTHEAST WASHINGTON AND NORTHERN IDAHO PANHANDLE...

CITY           SKY/WX    TMP DP  RH WIND       PRES   REMARKS
SPOKANE INTL   CLOUDY    45  23  42 NE3       30.17R
SPOKANE DOWNTO MOCLDY    38  31  76 NE5       30.19R
COEUR D ALENE  PTCLDY    36  30  80 NE5       30.19S
DEER PARK      MOCLDY    36  28  73 CALM      30.18R
SANDPOINT      CLEAR     32  30  93 CALM      30.19S
BONNERS FERRY  FAIR      37  25  60 CALM      30.21R

...SOUTHEAST WASHINGTON AND SOUTHERN IDAHO PANHANDLE...

CITY           SKY/WX    TMP DP  RH WIND       PRES   REMARKS
WALLA WALLA    MOCLDY    51  29  42 E10       30.15S
PULLMAN/MOSCOW PTCLDY    33  27  78 CALM      30.19S
LEWISTON       CLEAR     44  30  57 E5        30.19R
LOWELL           N/A     36  33  89 CALM      30.28R

...COLUMBIA BASIN...

CITY           SKY/WX    TMP DP  RH WIND       PRES   REMARKS
EPHRATA        MOCLDY    48  31  51 N9        30.17S
MOSES LAKE     MOCLDY    42  31  64 N10       30.18R
TRI CITIES     PTCLDY    35  32  88 NW7       30.17S WCI  29
HERMISTON      PTCLDY    38  30  73 CALM      30.16S
PENDLETON      PTCLDY    41  30  65 SE8       30.15F

...EAST SLOPES CASCADES...

CITY           SKY/WX    TMP DP  RH WIND       PRES   REMARKS
THE DALLES     CLEAR     40  33  76 E3        30.17F
YAKIMA         PTCLDY    46  33  60 W10       30.18S
ELLENSBURG     PTCLDY    38  31  76 CALM      30.19S
WENATCHEE      MOCLDY    47  35  63 NW6       30.20R
OMAK           PTCLDY    45  27  49 N12       30.22R

...SOUTHERN BRITISH COLUMBIA...

CITY           SKY/WX    TMP DP  RH WIND       PRES   REMARKS
PENTICTON      PTCLDY    36  27  69 N5        30.27R
CASTLEGAR      PTCLDY    36  27  69 CALM      30.25
CRANBROOK      PTCLDY    34  19  55 W6        30.24S WCI  29

...WESTERN MONTANA...

CITY           SKY/WX    TMP DP  RH WIND       PRES   REMARKS
MISSOULA       CLEAR     34  24  67 CALM      30.24R

...NEIGHBORING CITIES...

CITY           SKY/WX    TMP DP  RH WIND       PRES   REMARKS
SEATTLE        CLEAR     48  41  76 NE7       30.21F
CALGARY        PTCLDY    23  14  68 N2        30.26S



USA.gov is the U.S. government's official web portal to all federal, state and local government web resources and services.